Regional Weather Roundup
Issued by NWS

Home | Current Version | Previous Version | Text Only | Print | Product List | Glossary Off
Versions: 1 2 3 4 5 6 7 8 9 10 11 12 13 14 15 16 17 18 19 20 21 22 23 24 25 26 27 28 29 30 31 32 33 34 35 36 37 38 39 40 41 42 43 44 45 46 47 48 49 50

000
ASUS43 KTOP 281408
RWRKS

WEATHER ROUNDUP FOR KANSAS
NATIONAL WEATHER SERVICE GOODLAND KS
800 AM CST FRI NOV 28 2014

NOTE:  "FAIR" INDICATES FEW OR NO CLOUDS BELOW 12,000 FEET WITH NO
SIGNIFICANT WEATHER AND/OR OBSTRUCTIONS TO VISIBILITY.

KSZ001>006-013>018-027>032-041>047-281500-
NORTHWEST KANSAS

CITY           SKY/WX    TMP DP  RH WIND       PRES   REMARKS
GOODLAND       CLEAR     43  20  39 SW10      29.92F
HAYS           CLEAR     28  16  59 CALM      29.90S
HILL CITY      CLEAR     34  24  67 W7        29.90S
RUSSELL        CLEAR     33  27  78 S13       29.88F WCI  24
$$

KSZ061>065-074>080-084>089-281500-
SOUTHWEST KANSAS

CITY           SKY/WX    TMP DP  RH WIND       PRES   REMARKS
DODGE CITY     PTCLDY    34  25  69 SW9       29.94F
ELKHART          N/A     46  21  37 SW7         N/A
GARDEN CITY    PTCLDY    29  24  82 W7        29.94F
GREAT BEND     CLEAR     34  25  69 SW8       29.94F
LIBERAL        PTCLDY    27  19  74 SW7       29.99S
PRATT          PTCLDY    32  28  86 SW8       29.97S
$$

KSZ066>073-081>083-090>101-281500-
SOUTHEAST KANSAS

CITY           SKY/WX    TMP DP  RH WIND       PRES   REMARKS
CHANUTE        CLEAR     39  28  64 S16       30.04F WCI  30
COFFEYVILLE    CLEAR     40  28  62 S16       30.07F WCI  31
HUTCHINSON     CLEAR     34  26  72 S7        29.97F
MEDICINE LODGE   N/A     32  26  78 CALM      29.99F
NEWTON         CLEAR     37  25  60 SW16      29.99F WCI  28
PARSONS        CLEAR     40  29  64 S12       30.07F WCI  33
WICHITA INTL   PTCLDY    36  27  69 S8        30.00F
WICHITA JABRA  PTCLDY    40  28  62 S15       29.99S WCI  32
WICHITA MCCONL CLEAR     39  28  64 S14       30.00F WCI  31
WINFIELD       CLEAR     39  28  64 S8        30.04F
$$

KSZ007>012-019>026-033>040-048>060-102>105-281500-
NORTHEAST KANSAS

CITY           SKY/WX    TMP DP  RH WIND       PRES   REMARKS
CONCORDIA      CLEAR     33  26  75 SW6       29.90F
EMPORIA        CLEAR     32  24  72 S14       29.98F WCI  22
LAWRENCE       CLEAR     35  25  66 S7        30.01F
MANHATTAN      CLEAR     35  26  69 SW9       29.94F
MARYSVILLE     CLEAR     32  28  86 S7        29.91F
OLATHE IND     CLEAR     35  26  69 S12       30.01F WCI  27
OLATHE EXE     CLEAR     36  26  67 S14       30.00F WCI  27
SALINA         PTCLDY    35  27  72 S14       29.93F WCI  26
TOPEKA BILLARD CLEAR     37  25  61 S7        29.99F
TOPEKA FORBES  CLEAR     36  25  64 S10       29.97F WCI  28
$$


USA.gov is the U.S. government's official web portal to all federal, state and local government web resources and services.